Regional Weather Roundup
Issued by NWS

Home | Current Version | Previous Version | Text Only | Print | Product List | Glossary On
Versions: 1 2 3 4 5 6 7 8 9 10 11 12 13 14 15 16 17 18 19 20 21 22 23 24 25 26 27 28 29 30 31 32 33 34 35 36 37 38 39 40 41 42 43 44 45 46 47 48 49 50
000
ASUS44 KFWD 170915
RWRTX
NORTH TEXAS HOURLY WEATHER ROUNDUP
NATIONAL WEATHER SERVICE FORT WORTH TX
400 AM CDT WED SEP 17 2014

NOTE: "FAIR" INDICATES FEW OR NO CLOUDS BELOW 12,000 FEET WITH NO
SIGNIFICANT WEATHER AND/OR OBSTRUCTIONS TO VISIBILITY.

TXZ118-119-171000-
DALLAS/FORT WORTH METROPLEX

CITY           SKY/WX    TMP DP  RH WIND       PRES   REMARKS
DFW AIRPORT    CLOUDY    78  70  76 CALM      29.96F
DALLAS LOVE    CLOUDY    79  71  76 CALM      29.96F
FTW MEACHAM    CLOUDY    77  71  82 S5        29.96F
DAL-EXECUTIVE  MOCLDY    77  70  79 CALM      29.97S
FTW-ALLIANCE   CLOUDY    74  70  87 CALM      29.96F
FTW-NAS-JRB    CLOUDY    80  70  71 S6        30.00F
FTW-SPINKS     MOCLDY    73  70  89 CALM      29.98F
ARLINGTON      MOCLDY    75  70  84 S5        29.97F
GRAND PRAIRIE  MOCLDY    76  69  78 S3        29.98S
ADDISON        CLOUDY    79  69  72 S3        29.98F
MESQUITE       MOCLDY    73  70  91 CALM      29.97F
LANCASTER      PTCLDY    72  68  88 CALM      29.97F
$$

TXZ091>094-102>105-117-120-121-131>134-171000-
NORTH CENTRAL TEXAS

CITY           SKY/WX    TMP DP  RH WIND       PRES   REMARKS
SHRMAN/DENISON MOCLDY    73  68  86 CALM      29.99F
GAINESVILLE    PTCLDY    73  69  89 CALM      30.00S
BOWIE          MOCLDY    73  69  87 CALM      29.99F
BRIDGEPORT     CLOUDY    72  69  89 CALM      29.99F
DECATUR        CLOUDY    76  69  79 S3        29.98F
DENTON         CLOUDY    73  68  84 CALM      29.96F
MCKINNEY       MOCLDY    72  69  90 CALM      29.97F
GREENVILLE     MOCLDY    72  68  88 CALM      29.98S
ROCKWALL       MOCLDY    74  71  89 CALM      29.96F
TERRELL        MOCLDY    75  73  93 S3        29.97F
WAXAHACHIE     PTCLDY    71  69  92 S5        29.99S
CLEBURNE       MOCLDY    73  73 100 CALM      29.99F
GRANBURY       MOCLDY    77  70  80 CALM      29.99S
$$

TXZ083>090-098>101-113>116-127>130-139>142-154-155-171000-
WESTERN NORTH TEXAS

CITY           SKY/WX    TMP DP  RH WIND       PRES   REMARKS
WICHITA FALLS  MOCLDY    73  68  84 S7        29.97F
VERNON         PTCLDY    73  67  83 W6        29.99F
ABILENE        LGT RAIN  75  69  81 SE3       30.02F
ABILENE-DYESS  CLOUDY    73  67  81 S5        30.00F
BRECKENRIDGE   CLOUDY    78  68  71 CALM      29.98F HAZE
GRAHAM         CLOUDY    74  66  75 CALM      29.98S
MINERAL WELLS  CLOUDY    75  69  81 SE5       29.97F HAZE
STEPHENVILLE   CLOUDY    74  69  83 S3        30.02F
COMANCHE         N/A     74  68  81 CALM      30.00F
BROWNWOOD      CLOUDY    73  68  83 CALM      30.00F
BRADY            N/A     72  70  94 CALM      30.02S
$$

TXZ143>147-156>162-174-175-171000-
CENTRAL TEXAS

CITY           SKY/WX    TMP DP  RH WIND       PRES   REMARKS
WACO           PTCLDY    72  70  93 CALM      29.97F
WACO-MCGREGOR  MOCLDY    72  64  78 CALM      29.99S
HILLSBORO      PTCLDY    73  69  89 CALM      29.97F
CORSICANA      PTCLDY    72  69  90 S5        29.98F
MEXIA          CLOUDY    73  72  97 S3        29.97S
HEARNE           N/A     74  74  98 CALM      29.98S FOG
CAMERON        MOCLDY    74  73  98 CALM      29.97S FOG
TEMPLE         CLOUDY    72  66  83 SE7       29.97F
KILLEEN        MOCLDY    73  72  94 S5        29.98F
KILLEEN-SKYLRK CLOUDY    72  66  83 S3        29.98F
FORT HOOD      CLOUDY    75  72  90 SE3       29.98F
GATESVILLE     CLOUDY    73  70  88 NE5       30.00F
HAMILTON       CLOUDY    73  71  92 SW10      30.01S
LAMPASAS       CLOUDY    71  69  94 CALM      29.99F
$$

TXZ095>097-106>112-122>126-135>138-148>153-164>167-171000-
EAST TEXAS

CITY           SKY/WX    TMP DP  RH WIND       PRES   REMARKS
PARIS          CLOUDY    72  64  78 SE7       29.99F
SULPHUR SPRNGS CLOUDY    73  71  93 CALM      29.99F
MOUNT PLEASANT CLOUDY    72  70  93 CALM      29.99F
GILMER         PTCLDY    73  73 100 CALM      29.99F
MINEOLA        PTCLDY    72  72 100 E3        29.99S FOG
TYLER          PTCLDY    73  70  90 S3        29.97F
LONGVIEW       CLEAR     72  69  90 CALM      29.97F
MARSHALL       PTCLDY    73  71  91 CALM      29.99F
ATHENS         CLEAR     70  68  94 CALM      29.96F
PALESTINE      PTCLDY    73  72  99 CALM      29.98F
JACKSONVILLE   PTCLDY    73  71  95 CALM      30.00F
HENDERSON      PTCLDY    70  70  99 CALM      29.99S
NACOGDOCHES    CLOUDY    72  70  94 CALM      29.98F VSB 1/2
LUFKIN         CLOUDY    75  72  90 SE6       29.97F FOG
$$

SUPPLEMENTAL OBSERVATIONS (CENTRAL)

CITY           SKY/WX    TMP DP  RH WIND       PRES   REMARKS
LAKE TEXOMA      N/A     72  66  83 E5          N/A
PAT MAYSE LAKE   N/A     72  68  88 E2          N/A
GREENVILLE       N/A     73  68  83 SE2         N/A
CEDAR HILL       N/A     73  68  83 S1          N/A
ATHENS           N/A     73  70  88 SE1         N/A
LAKE LIMESTONE   N/A     73  72  94 S3          N/A
MCGREGOR         N/A     73  70  88 S3          N/A
$$

SUPPLEMENTAL OBSERVATIONS (WEST)

CITY           SKY/WX    TMP DP  RH WIND       PRES   REMARKS
MILLERS CREEK    N/A     73  66  78 SW2         N/A
COMANCHE         N/A     73  66  78 E3          N/A
HAMBY            N/A     72  68  88 SE1         N/A
COLORADO BEND    N/A     73  70  88 S5          N/A
$$

SUPPLEMENTAL OBSERVATIONS (EAST)

CITY           SKY/WX    TMP DP  RH WIND       PRES   REMARKS
TEXARKANA        N/A     68  64  88 CALM        N/A
LINDEN           N/A     72  68  88 CALM        N/A
CADDO LAKE       N/A     70  68  94 CALM        N/A
LUFKIN           N/A     73  72  94 MISG        N/A
N SABINE NF      N/A     72  68  88 MISG        N/A
$$

SUPPLEMENTAL OBSERVATIONS ARE A COLLECTION OF AUTOMATED INSTRUMENTS
THAT ARE MAINTAINED BY A VARIETY OF FEDERAL AND STATE AGENCIES.
CERTAIN ELEMENTS...SUCH AS HUMIDITY VALUES AND SUSTAINED WIND
SPEEDS...MAY BE APPROXIMATED.




USA.gov is the U.S. government's official web portal to all federal, state and local government web resources and services.